Weather History for Fairbanks, AK

Change the Weather History Date:

Monday, January 6, 2014

  Actual Average Record
Temperature  
Mean Temperature 12 °F -8 °F  
Max Temperature 21 °F 1 °F 34 °F (1934)
Min Temperature 3 °F -17 °F -57 °F (1975)
Degree Days  
Heating Degree Days 53 73  
Month to date heating degree days 338 434  
Since 1 July heating degree days 6022 6706  
Cooling Degree Days 0 0  
Month to date cooling degree days 0 0  
Year to date cooling degree days 0 0  
Moisture  
Dew Point 7 °F    
Average Humidity 80    
Maximum Humidity 87    
Minimum Humidity 66    
Precipitation  
Precipitation 0.00 in 0.02 in 0.29 in (1993)
Month to date precipitation 0.05 0.13  
Year to date precipitation 0.05 0.13  
Snow  
Snow 0.00 in 0.40 in 5.80 in (1993)
Month to date snowfall 0.7 2.3  
Since 1 July snowfall 34.0 40.2  
Snow Depth 17.00 in    
Sea Level Pressure  
Sea Level Pressure 29.72 in    
Wind  
Wind Speed 3 mph (NE)    
Max Wind Speed 7 mph    
Max Gust Speed -    
Visibility 10 miles    
Events      
T = Trace of Precipitation, MM = Missing Value Source: NWS Daily Summary

Daily Weather History Graph

Daily Weather History Graph

Search for Another Location

Airport:

Trip Planner

Search our weather history database for the weather conditions in past years. The results will help you decide how hot, cold, wet, or windy it might be!

Date:

Astronomy

Jan. 06, 2014 Rise Set
Actual Time 10:46 AM AKST 3:09 PM AKST
Civil Twilight 9:28 AM AKST 4:27 PM AKST
Nautical Twilight 8:19 AM AKST 5:36 PM AKST
Astronomical Twilight 7:18 AM AKST 6:36 PM AKST
Moon 11:20 AM AKST (1/6) No Moon Set
Length of Visible Light 6h 58m
Length of Day
4h 23m
Waxing Crescent, 36% of the Moon is Illuminated
Jan 6
Waxing Crescent
Jan 7
First Quarter
Jan 15
Full
Jan 23
Last Quarter
Jan 30
New

Hourly Weather History & Observations

Time (AKST) Temp. Windchill Dew Point Humidity Pressure Visibility Wind Dir Wind Speed Gust Speed Precip Events Conditions
12:53 AM 16.0 °F 8.8 °F 10.9 °F 81% 29.77 in 10.0 mi NNE 4.6 mph - N/A   Mostly Cloudy
1:53 AM 10.9 °F 1.4 °F 7.0 °F 84% 29.78 in 10.0 mi NE 5.8 mph - N/A   Mostly Cloudy
3:53 AM 10.0 °F -0.9 °F 6.1 °F 84% 29.76 in 10.0 mi NE 6.9 mph - N/A   Mostly Cloudy
4:53 AM 9.0 °F -0.9 °F 5.0 °F 84% 29.75 in 10.0 mi NE 5.8 mph - N/A   Mostly Cloudy
5:53 AM 10.0 °F - 5.0 °F 80% 29.75 in 10.0 mi Calm Calm - N/A   Mostly Cloudy
6:53 AM 7.0 °F - 3.9 °F 87% 29.74 in 10.0 mi Calm Calm - N/A   Mostly Cloudy
7:53 AM 9.0 °F -2.2 °F 3.9 °F 80% 29.71 in 10.0 mi North 6.9 mph - N/A   Mostly Cloudy
8:53 AM 8.1 °F - 1.9 °F 76% 29.72 in 10.0 mi Calm Calm - N/A   Mostly Cloudy
9:53 AM 9.0 °F - 3.0 °F 77% 29.71 in 10.0 mi Calm Calm - N/A   Mostly Cloudy
10:53 AM 9.0 °F - 3.9 °F 80% 29.70 in 10.0 mi Calm Calm - N/A   Mostly Cloudy
11:53 AM 9.0 °F - 3.9 °F 80% 29.70 in 10.0 mi Calm Calm - N/A   Overcast
12:53 PM 15.1 °F - 10.0 °F 80% 29.68 in 10.0 mi Calm Calm - N/A   Overcast
1:53 PM 17.1 °F 10.0 °F 12.0 °F 81% 29.70 in 10.0 mi SW 4.6 mph - N/A   Overcast
2:53 PM 19.0 °F 13.9 °F 14.0 °F 81% 29.68 in 10.0 mi Variable 3.5 mph - N/A   Mostly Cloudy
3:53 PM 19.9 °F - 16.0 °F 85% 29.72 in 10.0 mi Calm Calm - N/A   Mostly Cloudy
4:53 PM 19.9 °F 13.4 °F 15.1 °F 81% 29.71 in 10.0 mi NE 4.6 mph - N/A   Mostly Cloudy
5:53 PM 19.0 °F - 15.1 °F 85% 29.71 in 10.0 mi Calm Calm - N/A   Mostly Cloudy
6:53 PM 19.9 °F 14.9 °F 15.1 °F 81% 29.70 in 10.0 mi NNE 3.5 mph - N/A   Mostly Cloudy
7:53 PM 15.1 °F - 10.0 °F 80% 29.71 in 10.0 mi Calm Calm - N/A   Mostly Cloudy
8:53 PM 9.0 °F - 3.9 °F 80% 29.71 in 10.0 mi Calm Calm - N/A   Scattered Clouds
9:53 PM 7.0 °F -1.7 °F 1.9 °F 80% 29.70 in 10.0 mi NE 4.6 mph - N/A   Partly Cloudy
10:53 PM 3.0 °F - -0.9 °F 84% 29.70 in 10.0 mi Calm Calm - N/A   Partly Cloudy
11:53 PM 3.0 °F - -2.9 °F 76% 29.70 in 10.0 mi Calm Calm - N/A   Partly Cloudy